Location: Easthampton
(42.2676°N, 72.6690°W)
Time: 07:20:20
(UTC+00:00)

BEESAT - Visible Passes

Search period start: 01 April 2023 00:00
Search period end: 11 April 2023 00:00
Orbit: 698 x 704 km, 98.5° (Epoch: 31 March)

Date Brightness Start Highest point End Pass type
(mag) Time Alt. Az. Time Alt. Az. Time Alt. Az.
01 Apr ? 01:59:59 10° NNE 02:02:18 29° NNE 02:02:18 29° NNE visible
01 Apr ? 03:39:51 10° NW 03:41:10 12° NW 03:41:10 12° NW visible
02 Apr ? 01:05:29 10° NE 01:06:29 14° NE 01:06:29 14° NE visible
02 Apr ? 02:42:38 10° N 02:45:21 28° NNW 02:45:21 28° NNW visible
03 Apr ? 01:47:08 10° NNE 01:49:32 29° NNE 01:49:32 29° NNE visible
03 Apr ? 03:26:09 10° NNW 03:28:24 16° NW 03:28:24 16° NW visible
04 Apr ? 00:53:07 10° NE 00:53:43 12° ENE 00:53:43 12° ENE visible
04 Apr ? 02:29:35 10° N 02:32:35 35° NNW 02:32:35 35° NNW visible
05 Apr ? 01:34:22 10° NNE 01:36:45 27° NE 01:36:45 27° NE visible
05 Apr ? 03:12:45 10° NNW 03:15:38 21° NW 03:15:38 21° NW visible
06 Apr ? 02:16:35 10° N 02:19:47 42° N 02:19:47 42° N visible
07 Apr ? 01:21:39 10° NNE 01:23:57 24° NE 01:23:57 24° NE visible
07 Apr ? 02:59:29 10° N 03:02:49 27° NW 03:02:49 27° NW visible
08 Apr ? 02:03:38 10° NNE 02:06:59 46° NNE 02:06:59 46° NNE visible
08 Apr ? 03:43:45 10° NW 03:45:23 12° WNW 03:45:50 11° WNW visible
09 Apr ? 01:09:01 10° NE 01:11:07 20° ENE 01:11:07 20° ENE visible
09 Apr ? 02:46:18 10° N 02:50:00 34° NW 02:50:00 34° NW visible
10 Apr ? 01:50:43 10° NNE 01:54:09 44° NE 01:54:09 44° NE visible
10 Apr ? 03:29:52 10° NNW 03:32:37 15° WNW 03:33:01 15° WNW visible
